x

West Sea Otter (46204) Wave Buoy

9:00am - Wed 27th Jul 2016 All times are PDT. -7 hours from GMT.

  • Sig Wave height 2.3ft
  • Peak Period 8s
  • Wind
    9mph, 11mph gusts
  • Sea Temp 59°f
  • Air Temp 57°f
  • Sea Pressure 1024.5mb
  • West Sea Otter
  • West Sea Otter

More Historic Weather Station data

Upgrade to MSW Pro to gain access to the past 30 days of data for over 8000 Wavebouys and Weather Stations around the globe.

Join Pro

Comparision Forecast

View Surf forecast
   
Wed 07/27 9:00am 2.5ft 8s 9 11 mph 1024.5mb 59f 57f
8:00am 2.5ft 7s 9
mph
1024.3mb 59f 57f
7:00am 3ft 7s 9 11 mph 1024.1mb 59f 57f
6:00am 3ft 6s 9 11 mph 1024.2mb 59f 57f
5:00am 2.5ft 8s 9
mph
1024mb 59f 57f
4:00am 2.5ft 7s 9 11 mph 1023.8mb 59f 57f
3:00am 2.5ft 8s 9 11 mph 1023.8mb 59f 58f
2:00am 2.5ft 8s 9 11 mph 1024mb 59f 58f
1:00am 2.5ft 8s 9 11 mph 1024.1mb 59f 58f
12:00am 2ft 14s 9 13 mph 1024.3mb 59f 58f
Tue 07/26 11:00pm 2ft 8s 9 11 mph 1024.4mb 60f 58f
10:00pm 2ft 9s 11 13 mph 1024.3mb 60f 58f
9:00pm 2.5ft 9s 11 13 mph 1023.9mb 60f 58f
8:00pm 2.5ft 15s 11 13 mph 1024mb 60f 59f
7:00pm 2.5ft 8s 11
mph
1024mb 60f 60f
6:00pm 2.5ft 8s 9 11 mph 1024.4mb 60f 60f
5:00pm 2.5ft 14s 9
mph
1024.5mb 60f 59f
4:00pm 2.5ft 15s 9 11 mph 1024.8mb 60f 59f
3:00pm 2.5ft 7s 9
mph
1024.8mb 60f 59f
1:00pm 2.5ft 14s 9
mph
1024.7mb 59f 59f
12:00pm 2.5ft 9s 9 11 mph 1024.5mb 59f 59f
11:00am 2.5ft 14s 9
mph
1024.3mb 59f 58f
10:00am 2.5ft 10s 7 9 mph 1024mb 59f 58f
9:00am 2.5ft 9s 9 11 mph 1023.6mb 59f 58f
8:00am 2.5ft 9s 11 13 mph 1023.3mb 59f 57f
7:00am 3ft 9s 9 11 mph 1022.9mb 59f 58f
6:00am 3ft 16s 9 11 mph 1022.6mb 59f 58f
5:00am 3.5ft 9s 11 13 mph 1022.6mb 59f 58f
4:00am 3.5ft 10s 11 13 mph 1022.3mb 59f 59f
3:00am 3.5ft 10s 11 13 mph 1022.2mb 59f 59f
2:00am 4ft 10s 11 13 mph 1022.1mb 59f 58f
1:00am 3.5ft 10s 11 13 mph 1022.1mb 59f 58f
12:00am 3.5ft 9s 13 16 mph 1022mb 60f 59f
Mon 07/25 11:00pm 3ft 10s 11 13 mph 1021.7mb 60f 59f
10:00pm 3.5ft 9s 13 16 mph 1021.8mb 60f 59f
9:00pm 3.5ft 10s 13 18 mph 1021.4mb 60f 59f
8:00pm 3.5ft 10s 13
mph
1021.2mb 60f 59f
7:00pm 3.5ft 10s 11 13 mph 1021.2mb 60f 59f
6:00pm 3.5ft 10s 13
mph
1021.3mb 60f 60f
5:00pm 3.5ft 8s 13 16 mph 1021.6mb 60f 59f
4:00pm 3.5ft 10s 13 16 mph 1021.6mb 60f 60f
3:00pm 3.5ft 10s 9 11 mph 1021.8mb 60f 59f
2:00pm 3.5ft 10s 9 11 mph 1021.9mb 60f 59f
1:00pm 3.5ft 10s 7 9 mph 1021.8mb 60f 58f
12:00pm 3.5ft 9s 7
mph
1021.7mb 60f 58f
11:00am 3.5ft 10s 7
mph
1021.5mb 60f 58f
10:00am 3.5ft 9s 9 13 mph 1021.4mb 60f 58f
9:00am 4ft 10s 16 22 mph 1021.1mb 59f 58f
8:00am 3.5ft 11s 2 4 mph 1020.9mb 59f 59f
7:00am 3.5ft 10s 4 7 mph 1020.7mb 59f 58f
6:00am 4ft 9s 7 9 mph 1020.7mb 59f 58f
5:00am 4ft 10s 7 9 mph 1020.7mb 59f 58f
4:00am 4.5ft 10s 7 9 mph 1020.7mb 59f 58f
3:00am 4.5ft 10s 9 13 mph 1020.7mb 59f 58f
2:00am 4.5ft 10s 7 9 mph 1020.8mb 59f 58f
1:00am 3.5ft 8s 7 11 mph 1021mb 59f 58f
12:00am 3.5ft 8s 9 11 mph 1021.2mb 59f 58f
Sun 07/24 11:00pm 3.5ft 10s 9 11 mph 1021.2mb 59f 59f
10:00pm 3.5ft 8s 7 9 mph 1021.1mb 59f 59f
9:00pm 3.5ft 9s 7 9 mph 1020.8mb 60f 59f
8:00pm 4ft 10s 7
mph
1021mb 60f 58f
7:00pm 3.5ft 9s 7
mph
1020.8mb 60f 59f
6:00pm 4ft 8s 9
mph
1020.9mb 60f 59f
5:00pm 4ft 8s 7
mph
1021.2mb 60f 59f
4:00pm 4ft 7s 7
mph
1021.2mb 60f 59f
3:00pm 4.5ft 8s 4 7 mph 1021.2mb 59f 59f
2:00pm 5ft 7s 4
mph
1021.3mb 59f 59f
1:00pm 4.5ft 7s 9
mph
1021.4mb 59f 58f
12:00pm 4ft 7s 11 13 mph 1021.1mb 59f 58f
11:00am 4ft 8s 9 11 mph 1020.9mb 59f 58f
10:00am 4ft 7s 11 13 mph 1021mb 59f 58f
9:00am 4ft 8s 13 16 mph 1020.9mb 59f 58f
8:00am 4ft 8s 13 16 mph 1020.5mb 59f 58f
7:00am 4.5ft 7s 16 18 mph 1020.4mb 59f 58f
6:00am 4.5ft 7s 16 20 mph 1020.1mb 59f 58f
5:00am 5ft 7s 18 20 mph 1020mb 59f 58f
4:00am 5ft 7s 20 22 mph 1020mb 59f 58f
3:00am 5ft 7s 20 25 mph 1020.3mb 59f 58f
2:00am 5ft 7s 20 22 mph 1020.7mb 59f 58f
1:00am 5ft 7s 18 22 mph 1021.4mb 59f 58f
12:00am 4.5ft 7s 18 22 mph 1021.7mb 59f 58f
Sat 07/23 11:00pm 4.5ft 7s 18 22 mph 1022.1mb 59f 58f
10:00pm 4.5ft 8s 18 22 mph 1022.2mb 59f 58f
9:00pm 4.5ft 4s 18 22 mph 1022.4mb 59f 58f
8:00pm 4.5ft 5s 18 20 mph 1022.4mb 60f 58f
7:00pm 4.5ft 4s 20 25 mph 1021.9mb 60f 58f
6:00pm 4.5ft 5s 20 22 mph 1022.3mb 60f 58f